Erwin, NC

9:29 PM EDT on July 23, 2017 (GMT -0400)
Harnett County

Weather History for KHRJ - September, 2013

Change the Weather History Date:

Wednesday, September 18, 2013

  Actual Average Record
Temperature  
Mean Temperature 64 °F -  
Max Temperature 76 °F 83 °F 99 °F (1978)
Min Temperature 51 °F 60 °F 44 °F (1981)
Degree Days  
Heating Degree Days 2    
Growing Degree Days 14 (Base 50)    
Moisture  
Dew Point 50 °F    
Average Humidity 66    
Maximum Humidity 97    
Minimum Humidity 34    
Precipitation  
Precipitation 0.00 in - - ()
Sea Level Pressure  
Sea Level Pressure 30.25 in    
Wind  
Wind Speed 3 mph (NE)    
Max Wind Speed 9 mph    
Max Gust Speed -    
Visibility 10 miles    
Events      
Averages and records for this station are not official NWS values.
T = Trace of Precipitation, MM = Missing Value Source: NWS Daily Summary

Daily Weather History Graph

Daily Weather History Graph

Search for Another Location

Airport or City:

Trip Planner

Search our weather history database for the weather conditions in past years. The results will help you decide how hot, cold, wet, or windy it might be!

Date:

Astronomy

Sep. 18, 2013 Rise Set
Actual Time 7:00 AM EDT 7:17 PM EDT
Civil Twilight 6:34 AM EDT 7:42 PM EDT
Nautical Twilight 6:04 AM EDT 8:12 PM EDT
Astronomical Twilight 5:34 AM EDT 8:42 PM EDT
Moon 6:39 PM EDT (9/18) 6:01 AM EDT (9/18)
Length of Visible Light 13h 07m
Length of Day
12h 17m
Waxing Gibbous, 99% of the Moon is Illuminated
Sep 18
Waxing Gibbous
Sep 19
Full
Sep 26
Last Quarter
Oct 4
New
Oct 11
First Quarter

Hourly Weather History & Observations

Time (EDT) Temp. Dew Point Humidity Pressure Visibility Wind Dir Wind Speed Gust Speed Precip Events Conditions
12:15 AM 60.6 °F 52.0 °F 73% 30.30 in 10.0 mi NE 5.8 mph - N/A   Clear
12:35 AM 59.9 °F 52.2 °F 76% 30.30 in 10.0 mi NE 4.6 mph - N/A   Clear
12:55 AM 59.9 °F 52.2 °F 76% 30.30 in 10.0 mi NE 5.8 mph - N/A   Clear
1:15 AM 59.2 °F 51.8 °F 77% 30.30 in 10.0 mi NE 3.5 mph - N/A   Clear
1:35 AM 58.5 °F 51.8 °F 79% 30.30 in 10.0 mi NNE 3.5 mph - N/A   Clear
1:55 AM 58.1 °F 51.8 °F 80% 30.29 in 10.0 mi North 3.5 mph - N/A   Clear
2:15 AM 57.2 °F 51.8 °F 82% 30.29 in 10.0 mi NNE 4.6 mph - N/A   Clear
2:35 AM 56.8 °F 51.1 °F 81% 30.29 in 10.0 mi NNE 3.5 mph - N/A   Clear
2:55 AM 56.3 °F 50.9 °F 82% 30.28 in 10.0 mi Calm Calm - N/A   Clear
3:15 AM 55.9 °F 50.5 °F 82% 30.28 in 10.0 mi Calm Calm - N/A   Clear
3:35 AM 54.3 °F 51.3 °F 89% 30.27 in 10.0 mi Calm Calm - N/A   Clear
3:55 AM 54.1 °F 52.0 °F 92% 30.27 in 10.0 mi Calm Calm - N/A   Clear
4:15 AM 53.6 °F 51.8 °F 94% 30.27 in 10.0 mi Calm Calm - N/A   Clear
4:35 AM 52.7 °F 51.4 °F 95% 30.27 in 10.0 mi Calm Calm - N/A   Clear
4:55 AM 52.9 °F 51.4 °F 95% 30.27 in 10.0 mi Calm Calm - N/A   Clear
5:15 AM 53.1 °F 51.4 °F 94% 30.27 in 10.0 mi Calm Calm - N/A   Clear
5:35 AM 51.8 °F 50.9 °F 97% 30.27 in 10.0 mi Calm Calm - N/A   Clear
5:55 AM 51.6 °F 50.4 °F 95% 30.27 in 10.0 mi Calm Calm - N/A   Clear
6:15 AM 52.3 °F 50.9 °F 95% 30.27 in 10.0 mi Calm Calm - N/A   Clear
6:35 AM 52.7 °F 50.9 °F 94% 30.28 in 10.0 mi Calm Calm - N/A   Clear
6:55 AM 51.8 °F 50.4 °F 95% 30.29 in 10.0 mi Calm Calm - N/A   Clear
7:15 AM 51.4 °F 50.5 °F 97% 30.29 in 10.0 mi Calm Calm - N/A   Clear
7:35 AM 53.1 °F 51.3 °F 94% 30.30 in 10.0 mi Calm Calm - N/A   Clear
7:55 AM 54.3 °F 51.8 °F 91% 30.30 in 10.0 mi North 5.8 mph - N/A   Clear
8:15 AM 55.9 °F 50.9 °F 83% 30.29 in 10.0 mi North 3.5 mph - N/A   Clear
8:35 AM 57.6 °F 50.0 °F 76% 30.30 in 10.0 mi North 3.5 mph - N/A   Clear
8:55 AM 58.8 °F 50.0 °F 73% 30.30 in 10.0 mi North 4.6 mph - N/A   Clear
9:15 AM 60.6 °F 50.2 °F 68% 30.30 in 10.0 mi NNE 5.8 mph - N/A   Clear
9:35 AM 62.2 °F 50.5 °F 65% 30.30 in 10.0 mi NNE 5.8 mph - N/A   Clear
9:55 AM 63.7 °F 50.7 °F 63% 30.30 in 10.0 mi North 5.8 mph - N/A   Clear
10:15 AM 65.5 °F 50.5 °F 58% 30.30 in 10.0 mi NE 9.2 mph - N/A   Clear
10:35 AM 66.6 °F 50.7 °F 57% 30.30 in 10.0 mi NNE 3.5 mph - N/A   Clear
10:55 AM 67.6 °F 51.1 °F 55% 30.30 in 10.0 mi NE 3.5 mph - N/A   Clear
11:15 AM 68.9 °F 51.3 °F 53% 30.30 in 10.0 mi NE 3.5 mph - N/A   Clear
11:35 AM 69.8 °F 51.1 °F 51% 30.29 in 10.0 mi ENE 8.1 mph - N/A   Clear
11:55 AM 70.5 °F 50.9 °F 50% 30.29 in 10.0 mi Calm Calm - N/A   Scattered Clouds
12:15 PM 70.5 °F 50.0 °F 48% 30.27 in 10.0 mi Calm Calm - N/A   Scattered Clouds
12:35 PM 72.7 °F 49.6 °F 44% 30.26 in 10.0 mi North 4.6 mph - N/A   Clear
12:55 PM 72.9 °F 48.0 °F 41% 30.26 in 10.0 mi ENE 8.1 mph - N/A   Clear
1:15 PM 73.6 °F 48.2 °F 41% 30.25 in 10.0 mi ENE 8.1 mph - N/A   Scattered Clouds
1:35 PM 74.1 °F 47.3 °F 38% 30.25 in 10.0 mi Calm Calm - N/A   Clear
1:55 PM 75.4 °F 48.7 °F 39% 30.24 in 10.0 mi NE 4.6 mph - N/A   Clear
2:15 PM 75.4 °F 47.8 °F 38% 30.23 in 10.0 mi North 5.8 mph - N/A   Clear
2:35 PM 73.8 °F 47.7 °F 40% 30.22 in 10.0 mi NE 5.8 mph - N/A   Clear
2:55 PM 75.0 °F 48.2 °F 39% 30.22 in 10.0 mi NNE 5.8 mph - N/A   Clear
3:15 PM 74.3 °F 48.2 °F 40% 30.22 in 10.0 mi NE 6.9 mph - N/A   Scattered Clouds
3:35 PM 75.7 °F 46.9 °F 36% 30.21 in 10.0 mi North 5.8 mph - N/A   Scattered Clouds
3:55 PM 76.6 °F 47.8 °F 36% 30.20 in 10.0 mi East 6.9 mph - N/A   Scattered Clouds
4:15 PM 76.5 °F 47.1 °F 35% 30.20 in 10.0 mi NNE 5.8 mph - N/A   Scattered Clouds
4:35 PM 75.6 °F 46.9 °F 36% 30.19 in 10.0 mi North 6.9 mph - N/A   Clear
4:55 PM 76.5 °F 47.5 °F 36% 30.19 in 10.0 mi NE 5.8 mph - N/A   Clear
5:15 PM 76.8 °F 46.8 °F 34% 30.19 in 10.0 mi ENE 4.6 mph - N/A   Clear
5:35 PM 76.3 °F 47.1 °F 36% 30.19 in 10.0 mi Calm Calm - N/A   Clear
5:55 PM 76.3 °F 47.7 °F 36% 30.19 in 10.0 mi NE 3.5 mph - N/A   Clear
6:15 PM 76.1 °F 47.7 °F 37% 30.19 in 10.0 mi ENE 5.8 mph - N/A   Clear
6:35 PM 74.1 °F 48.6 °F 40% 30.19 in 10.0 mi NE 5.8 mph - N/A   Clear
6:55 PM 71.8 °F 50.0 °F 46% 30.19 in 10.0 mi NE 4.6 mph - N/A   Clear
7:15 PM 69.8 °F 50.5 °F 50% 30.19 in 10.0 mi Calm Calm - N/A   Clear
7:35 PM 68.2 °F 50.9 °F 54% 30.19 in 10.0 mi NE 3.5 mph - N/A   Clear
7:55 PM 67.1 °F 51.4 °F 57% 30.19 in 10.0 mi Calm Calm - N/A   Clear
8:15 PM 66.4 °F 51.4 °F 59% 30.19 in 10.0 mi Calm Calm - N/A   Clear
8:35 PM 65.5 °F 51.6 °F 61% 30.20 in 10.0 mi Calm Calm - N/A   Clear
8:55 PM 64.4 °F 51.8 °F 64% 30.20 in 10.0 mi Calm Calm - N/A   Clear
9:15 PM 62.6 °F 52.7 °F 70% 30.21 in 10.0 mi Calm Calm - N/A   Clear
9:35 PM 61.7 °F 52.7 °F 72% 30.21 in 10.0 mi North 3.5 mph - N/A   Clear
9:55 PM 59.5 °F 52.9 °F 79% 30.21 in 10.0 mi Calm Calm - N/A   Clear
10:15 PM 59.9 °F 52.9 °F 78% 30.21 in 10.0 mi Calm Calm - N/A   Clear
10:35 PM 58.3 °F 52.9 °F 82% 30.21 in 10.0 mi Calm Calm - N/A   Clear
10:55 PM 57.7 °F 53.6 °F 86% 30.21 in 10.0 mi Calm Calm - N/A   Clear
11:15 PM 57.9 °F 53.4 °F 85% 30.20 in 10.0 mi Calm Calm - N/A   Clear
11:35 PM 56.1 °F 52.7 °F 88% 30.20 in 10.0 mi Calm Calm - N/A   Clear
11:55 PM 55.8 °F 54.1 °F 94% 30.20 in 10.0 mi Calm Calm - N/A   Clear